Regional Weather Roundup
Issued by NWS

Home | Current Version | Previous Version | Text Only | Print | Product List | Glossary On
Versions: 1 2 3 4 5 6 7 8 9 10 11 12 13 14 15 16 17 18 19 20 21 22 23 24 25 26 27 28 29 30 31 32 33 34 35 36 37 38 39 40 41 42 43 44 45 46 47 48 49 50
000
ASUS44 KLIX 310911
RWRLA
LOUISIANA WEATHER ROUNDUP
NATIONAL WEATHER SERVICE NEW ORLEANS LA
400 AM CDT FRI JUL 31 2015

NOTE: "FAIR" INDICATES FEW OR NO CLOUDS BELOW 12,000 FEET WITH NO
      SIGNIFICANT WEATHER AND/OR OBSTRUCTIONS TO VISIBILITY.
      SKY/WX - SKY CONDITION AND SIGNIFICANT WEATHER.
      TMP - AIR TEMPERATURE.    DP   - DEWPOINT TEMPERATURE.
      RH  - RELATIVE HUMIDITY.  PRES - PRESSURE.
      HX  - HEAT INDEX.         WCI  - WIND CHILL INDEX.

*  THESE STATIONS ARE NOT NWS OR FAA STATIONS AND ARE NOT UNDER
   NWS QUALITY CONTROL.

LAZ040-048-061>063-065-066-069-311000-
SOUTHEAST LOUISIANA

CITY           SKY/WX    TMP DP  RH WIND       PRES   REMARKS
N.O. AUDUBON     N/A     82  76  81 MISG        N/A
N.O. INTL ARPT CLOUDY    80  72  76 N9        29.93F
N.O. LAKEFRONT MOCLDY    81  74  79 N14       29.93F
N.O. DOWNTOWN* FAIR      81  73  78 N6        29.93F
RESERVE*         N/A     77  75  92 CALM      29.94F
SLIDELL        MOCLDY    75  75 100 NW5       29.92F
BATON ROUGE    PTCLDY    76  74  93 VRB3      29.96S
BOOTHVILLE     CLOUDY    83  76  79 NW9       29.91F
BELLE CHASSE   MOCLDY    80  74  81 N5        29.92S
BOGALUSA*        N/A     75  72  88 N6        29.95F
GALLIANO*      NOT AVBL
NEW ROADS*     FAIR     N/A N/A N/A N5        29.97S
GONZALES*      FAIR      75  75 100 CALM      29.94S
HAMMOND*       PTCLDY    75  72  88 NW3       29.96F
HOUMA*         MOCLDY    76  74  95 NW7       29.94F
PORT FOURCHON* CLOUDY    81  75  83 N9        29.93S

$$

LAZ041-044-053-054-311000-
SOUTHWEST LOUISIANA

CITY           SKY/WX    TMP DP  RH WIND       PRES   REMARKS
LAKE CHARLES   MOCLDY    77  75  93 NW3       29.98S
LAFAYETTE      CLOUDY    78  74  87 N7        29.96F
PATTERSON      CLOUDY    77  73  88 N3        29.97F
SALT POINT     NOT AVBL
NEW IBERIA     CLOUDY    78  74  87 N6        29.97S
CHENAULT AIRPK PTCLDY    76  74  93 NW5       29.99S

$$

LAZ027-028-311000-
CENTRAL LOUISIANA

CITY           SKY/WX    TMP DP  RH WIND       PRES   REMARKS
FORT POLK      PTCLDY    77  74  90 N8        30.00S
ALEXANDRIA INT PTCLDY    76  73  91 N7        29.98F
ALEXANDRIA     PTCLDY    78  72  81 CALM      30.00S

$$

LAZ001-002-311000-
NORTHWEST LOUISIANA

CITY           SKY/WX    TMP DP  RH WIND       PRES   REMARKS
SHREVEPORT     PTCLDY    78  67  68 NE7       30.06R
BARKSDALE AFB  PTCLDY    74  68  82 NE5       30.05S
DTN SHREVEPORT CLEAR     75  68  78 N5        30.06S

$$

LAZ014-016-311000-
NORTHEAST LOUISIANA

CITY           SKY/WX    TMP DP  RH WIND       PRES   REMARKS
MONROE         PTCLDY    72  67  84 N3        30.04R
TALLULAH       CLEAR     75  68  78 VRB3      30.01S

$$




USA.gov is the U.S. government's official web portal to all federal, state and local government web resources and services.